User: anonymous
Location: Unspecified
(0.0000°N, 0.0000°E)
Time: 04:47:18
(UTC+02:00)
Language:

ARIANE 44L R/B - Orbit

View from above orbital plane
View from above orbital plane
View from above satellite
View from above satellite

Ground track
Ground track

The orbit data is extracted from the following two-line orbital elements,

1 26901U 01039B   14110.28973885  .00004039  00000-0  14331-2 0   157
2 26901 007.5790 357.1678 6992550 269.5331 309.3320 02.63918838112125
Epoch (UTC): 20 April 2014 06:57:13
Eccentricity: 0.6992550
inclination: 7.5790°
perigee height: 274 km
apogee height: 31206 km
right ascension of ascending node: 357.1678°
argument of perigee: 269.5331°
revolutions per day: 2.63918838
mean anomaly at epoch: 309.3320°
orbit number at epoch: 11212

The dashed part of the orbit path shows where the satellite is in the earth's shadow,  

DLR